TRA6Q EHAM-LGSR

Flight info

Callsign TRA6Q
Flight time N/A
Altitude 35000
Route EDUPO Z739 MISGO DCT PODIP DCT TESGA DCT DINKU M867 XERUM DCT BAVAX DCT RADIZ DCT NIPEL DCT ABISO DCT NEMEK DCT VRANA DCT PETAK DCT PINDO UL607 KEA UN132 TUXEM UT514 PEXAN
Aircraft B738/M-SDE2E3FGHIRWXY/LB1

Departure

Time 2026-04-18 05:34
Airport Amsterdam Airport Schiphol (EHAM)

Arrival

Time N/A
Airport Santorini International Airport (LGSR)
Time Latitude Longitude Altitude Speed Heading
2026-04-18 05:22 52.30911 4.76795 -2 ft 0 kts 183°
2026-04-18 05:27 52.30913 4.76795 -2 ft 3 kts 183°
2026-04-18 05:28 52.30939 4.76797 -2 ft 4 kts 185°
2026-04-18 05:28 52.30966 4.76802 -2 ft 4 kts 185°
2026-04-18 05:28 52.30993 4.76805 -2 ft 4 kts 178°
2026-04-18 05:28 52.31015 4.76798 -2 ft 4 kts 123°
2026-04-18 05:29 52.31026 4.76807 -2 ft 2 kts 33°
2026-04-18 05:29 52.31025 4.76807 -2 ft 1 kts 33°
2026-04-18 05:30 52.31026 4.76808 -2 ft 1 kts 33°
2026-04-18 05:31 52.31061 4.76848 -2 ft 12 kts 40°
2026-04-18 05:31 52.31082 4.77023 -2 ft 21 kts 94°
2026-04-18 05:31 52.31072 4.77308 -2 ft 26 kts 94°
2026-04-18 05:31 52.31035 4.77581 -2 ft 23 kts 69°
2026-04-18 05:32 52.31180 4.77636 -2 ft 22 kts
2026-04-18 05:32 52.31334 4.77650 -2 ft 22 kts
2026-04-18 05:32 52.31481 4.77608 -2 ft 23 kts 326°
2026-04-18 05:32 52.31623 4.77510 -2 ft 24 kts 16°
2026-04-18 05:33 52.31756 4.77685 -3 ft 26 kts 16°
2026-04-18 05:33 52.31940 4.77707 -2 ft 26 kts
2026-04-18 05:33 52.32087 4.77843 -2 ft 24 kts 43°
2026-04-18 05:33 52.32060 4.78011 -2 ft 23 kts 187°
2026-04-18 05:34 52.31750 4.77982 -2 ft 77 kts 183°
2026-04-18 05:34 52.31005 4.77912 -5 ft 136 kts 183°
2026-04-18 05:34 52.29955 4.77816 326 ft 155 kts 183°
2026-04-18 05:34 52.28855 4.77810 987 ft 163 kts 182°
2026-04-18 05:35 52.27733 4.77869 1709 ft 166 kts 174°
2026-04-18 05:35 52.26616 4.78765 2053 ft 199 kts 141°
2026-04-18 05:35 52.25775 4.80735 2298 ft 228 kts 109°
2026-04-18 05:35 52.25599 4.83380 2683 ft 240 kts 93°
2026-04-18 05:36 52.25534 4.86150 3115 ft 252 kts 93°
2026-04-18 05:36 52.25457 4.89142 3391 ft 273 kts 94°
2026-04-18 05:36 52.25374 4.92277 4092 ft 278 kts 94°
2026-04-18 05:36 52.25289 4.95443 4887 ft 281 kts 94°
2026-04-18 05:37 52.25201 4.98645 5646 ft 284 kts 94°
2026-04-18 05:37 52.25111 5.01867 6431 ft 286 kts 94°
2026-04-18 05:37 52.25019 5.05119 7164 ft 288 kts 94°
2026-04-18 05:37 52.24925 5.08401 7869 ft 291 kts 94°
2026-04-18 05:38 52.24828 5.11728 8568 ft 295 kts 94°
2026-04-18 05:38 52.24730 5.15093 9283 ft 299 kts 94°
2026-04-18 05:38 52.24629 5.18492 10006 ft 302 kts 94°
2026-04-18 05:38 52.24524 5.21942 10539 ft 311 kts 94°
2026-04-18 05:39 52.24251 5.25556 10671 ft 331 kts 110°
2026-04-18 05:39 52.23130 5.28902 10925 ft 343 kts 128°
2026-04-18 05:39 52.21723 5.32101 11430 ft 351 kts 129°
2026-04-18 05:39 52.20281 5.35335 12114 ft 354 kts 129°
2026-04-18 05:40 52.18833 5.38600 12804 ft 357 kts 129°
2026-04-18 05:40 52.17376 5.41906 13480 ft 362 kts 129°
2026-04-18 05:40 52.15902 5.45272 14072 ft 368 kts 128°
2026-04-18 05:40 52.14411 5.48690 14666 ft 372 kts 128°
2026-04-18 05:41 52.12908 5.52135 15365 ft 374 kts 128°
2026-04-18 05:41 52.11398 5.55587 16071 ft 376 kts 129°
2026-04-18 05:41 52.09895 5.59020 16733 ft 379 kts 129°
2026-04-18 05:41 52.08360 5.62520 17394 ft 382 kts 129°
2026-04-18 05:42 52.06810 5.66046 18049 ft 385 kts 129°
2026-04-18 05:42 52.05199 5.69534 18672 ft 387 kts 133°
2026-04-18 05:42 52.03435 5.72852 19209 ft 389 kts 135°
2026-04-18 05:42 52.01621 5.76141 19723 ft 393 kts 136°
2026-04-18 05:43 51.99800 5.79483 20243 ft 397 kts 135°
2026-04-18 05:43 51.97974 5.82878 20761 ft 401 kts 135°
2026-04-18 05:43 51.96138 5.86313 21271 ft 405 kts 135°
2026-04-18 05:43 51.94282 5.89773 21771 ft 408 kts 135°
2026-04-18 05:44 51.92409 5.93257 22283 ft 412 kts 135°
2026-04-18 05:44 51.90519 5.96771 22771 ft 415 kts 135°
2026-04-18 05:44 51.88613 6.00312 23229 ft 419 kts 135°
2026-04-18 05:44 51.86686 6.03882 23689 ft 423 kts 135°
2026-04-18 05:45 51.84741 6.07477 24102 ft 426 kts 135°
2026-04-18 05:45 51.82778 6.11077 24533 ft 428 kts 136°
2026-04-18 05:45 51.80804 6.14685 24973 ft 429 kts 136°
2026-04-18 05:45 51.78822 6.18305 25386 ft 431 kts 136°
2026-04-18 05:46 51.76831 6.21937 25780 ft 434 kts 136°
2026-04-18 05:46 51.74826 6.25594 26165 ft 436 kts 136°
2026-04-18 05:46 51.72811 6.29273 26552 ft 438 kts 136°
2026-04-18 05:46 51.70791 6.32960 26911 ft 440 kts 136°
2026-04-18 05:47 51.68755 6.36671 27274 ft 443 kts 136°
2026-04-18 05:47 51.66709 6.40395 27636 ft 445 kts 136°
2026-04-18 05:47 51.64650 6.44135 27995 ft 447 kts 136°
2026-04-18 05:47 51.62581 6.47885 28315 ft 449 kts 136°
2026-04-18 05:48 51.60496 6.51655 28640 ft 452 kts 136°
2026-04-18 05:48 51.58402 6.55439 28962 ft 454 kts 136°
2026-04-18 05:48 51.56326 6.59186 29288 ft 456 kts 136°
2026-04-18 05:48 51.54212 6.63000 29613 ft 458 kts 136°
2026-04-18 05:49 51.52087 6.66825 29924 ft 460 kts 136°
2026-04-18 05:49 51.49952 6.70665 30220 ft 462 kts 136°
2026-04-18 05:49 51.47810 6.74514 30526 ft 462 kts 135°
2026-04-18 05:49 51.45669 6.78357 30867 ft 462 kts 135°
2026-04-18 05:50 51.43530 6.82187 31238 ft 460 kts 136°
2026-04-18 05:50 51.41400 6.85992 31607 ft 459 kts 136°
2026-04-18 05:50 51.39320 6.89869 31944 ft 459 kts 133°
2026-04-18 05:50 51.37336 6.93884 32264 ft 460 kts 131°
2026-04-18 05:51 51.35392 6.97950 32582 ft 460 kts 131°
2026-04-18 05:51 51.33463 7.02022 32912 ft 459 kts 131°
2026-04-18 05:51 51.31531 7.06084 33255 ft 458 kts 131°
2026-04-18 05:51 51.29593 7.10130 33579 ft 458 kts 131°
2026-04-18 05:52 51.27653 7.14151 33889 ft 457 kts 132°
2026-04-18 05:52 51.25708 7.18160 34167 ft 457 kts 131°
2026-04-18 05:52 51.23756 7.22168 34365 ft 458 kts 131°
2026-04-18 05:52 51.21800 7.26174 34613 ft 457 kts 131°
2026-04-18 05:53 51.19846 7.30171 34885 ft 456 kts 131°
2026-04-18 05:53 51.17894 7.34157 35145 ft 456 kts 131°
2026-04-18 05:53 51.13965 7.42162 35205 ft 461 kts 131°
2026-04-18 05:54 51.10015 7.50193 35194 ft 458 kts 131°
2026-04-18 05:54 51.06109 7.58113 35202 ft 454 kts 131°
2026-04-18 05:55 51.02204 7.66000 35204 ft 454 kts 131°
2026-04-18 05:55 50.98291 7.73882 35210 ft 455 kts 131°
2026-04-18 05:56 50.94971 7.80552 35206 ft 456 kts 131°
2026-04-18 05:56 50.90751 7.88002 35215 ft 453 kts 138°
2026-04-18 05:57 50.84061 7.98623 35212 ft 454 kts 138°
2026-04-18 05:58 50.79612 8.05748 35207 ft 456 kts 137°
2026-04-18 05:58 50.75173 8.12907 35214 ft 456 kts 137°
2026-04-18 05:59 50.70733 8.20062 35213 ft 457 kts 137°
2026-04-18 05:59 50.66281 8.27214 35207 ft 457 kts 137°
2026-04-18 06:00 50.61823 8.34352 35190 ft 457 kts 137°
2026-04-18 06:00 50.58114 8.40274 35186 ft 457 kts 137°
2026-04-18 06:01 50.52926 8.48535 35182 ft 457 kts 138°
2026-04-18 06:01 50.49184 8.54479 35182 ft 457 kts 138°
2026-04-18 06:02 50.44706 8.61572 35182 ft 457 kts 138°
2026-04-18 06:02 50.40160 8.68548 35179 ft 457 kts 139°
2026-04-18 06:03 50.34815 8.76538 35179 ft 457 kts 140°
2026-04-18 06:03 50.30966 8.82287 35166 ft 457 kts 140°
2026-04-18 06:04 50.26374 8.89155 35182 ft 457 kts 140°
2026-04-18 06:04 50.21814 8.95967 35174 ft 456 kts 140°
2026-04-18 06:05 50.17222 9.02811 35172 ft 456 kts 140°
2026-04-18 06:05 50.12628 9.09638 35176 ft 456 kts 140°
2026-04-18 06:06 50.08035 9.16443 35181 ft 456 kts 139°
2026-04-18 06:06 50.03433 9.23242 35168 ft 456 kts 139°
2026-04-18 06:07 49.98830 9.30025 35174 ft 456 kts 140°
2026-04-18 06:07 49.94224 9.36793 35172 ft 456 kts 140°
2026-04-18 06:08 49.89616 9.43545 35168 ft 455 kts 140°
2026-04-18 06:08 49.85006 9.50282 35168 ft 455 kts 140°
2026-04-18 06:09 49.80396 9.57000 35158 ft 455 kts 139°
2026-04-18 06:09 49.75780 9.63709 35170 ft 455 kts 139°
2026-04-18 06:10 49.71159 9.70406 35170 ft 455 kts 140°
2026-04-18 06:10 49.66531 9.77095 35174 ft 456 kts 140°
2026-04-18 06:11 49.61897 9.83775 35179 ft 456 kts 140°
2026-04-18 06:11 49.57255 9.90447 35180 ft 456 kts 140°
2026-04-18 06:12 49.52613 9.97103 35170 ft 456 kts 139°
2026-04-18 06:12 49.47962 10.03753 35180 ft 456 kts 139°
2026-04-18 06:13 49.43305 10.10393 35183 ft 457 kts 139°
2026-04-18 06:13 49.38640 10.17027 35184 ft 457 kts 139°
2026-04-18 06:14 49.33971 10.23649 35188 ft 457 kts 140°
2026-04-18 06:14 49.29328 10.30219 35189 ft 457 kts 139°
2026-04-18 06:15 49.24653 10.36807 35207 ft 457 kts 140°
2026-04-18 06:15 49.19465 10.42295 35208 ft 453 kts 152°
2026-04-18 06:16 49.14013 10.47132 35209 ft 453 kts 152°
2026-04-18 06:16 49.08573 10.51998 35207 ft 453 kts 152°
2026-04-18 06:17 49.03150 10.56905 35200 ft 453 kts 151°
2026-04-18 06:17 48.97735 10.61813 35208 ft 453 kts 151°
2026-04-18 06:18 48.92311 10.66713 35202 ft 453 kts 151°
2026-04-18 06:18 48.86880 10.71607 35212 ft 454 kts 151°
2026-04-18 06:19 48.81503 10.76652 35192 ft 456 kts 144°
2026-04-18 06:19 48.76987 10.83425 35213 ft 458 kts 133°
2026-04-18 06:20 48.72769 10.90671 35205 ft 458 kts 133°
2026-04-18 06:20 48.68523 10.97887 35198 ft 459 kts 133°
2026-04-18 06:21 48.64242 11.05061 35213 ft 459 kts 133°
2026-04-18 06:21 48.59949 11.12210 35200 ft 460 kts 133°
2026-04-18 06:22 48.55644 11.19356 35213 ft 460 kts 133°
2026-04-18 06:22 48.51334 11.26495 35184 ft 460 kts 133°
2026-04-18 06:23 48.47021 11.33622 35192 ft 460 kts 133°
2026-04-18 06:23 48.42700 11.40742 35199 ft 460 kts 133°
2026-04-18 06:24 48.38374 11.47852 35206 ft 460 kts 133°
2026-04-18 06:24 48.34047 11.54944 35205 ft 460 kts 133°
2026-04-18 06:25 48.29712 11.62033 35207 ft 461 kts 133°
2026-04-18 06:25 48.25340 11.69067 35207 ft 461 kts 135°
2026-04-18 06:26 48.20683 11.75580 35212 ft 461 kts 138°
2026-04-18 06:26 48.15896 11.81984 35213 ft 461 kts 138°
2026-04-18 06:27 48.11096 11.88466 35203 ft 462 kts 138°
2026-04-18 06:27 48.06381 11.94887 35209 ft 462 kts 138°
2026-04-18 06:28 48.01628 12.01365 35200 ft 463 kts 137°
2026-04-18 06:28 47.96868 12.07835 35214 ft 463 kts 137°
2026-04-18 06:29 47.92099 12.14296 35196 ft 463 kts 137°
2026-04-18 06:29 47.87323 12.20750 35197 ft 464 kts 137°
2026-04-18 06:30 47.82541 12.27194 35209 ft 464 kts 137°
2026-04-18 06:30 47.77758 12.33625 35206 ft 464 kts 137°
2026-04-18 06:31 47.72968 12.40048 35195 ft 464 kts 137°
2026-04-18 06:31 47.68175 12.46460 35202 ft 463 kts 137°
2026-04-18 06:32 47.63383 12.52854 35197 ft 463 kts 137°
2026-04-18 06:32 47.58610 12.59257 35199 ft 462 kts 137°
2026-04-18 06:33 47.53860 12.65675 35196 ft 462 kts 136°
2026-04-18 06:33 47.49111 12.72080 35203 ft 462 kts 136°
2026-04-18 06:34 47.44362 12.78461 35206 ft 460 kts 136°
2026-04-18 06:34 47.39625 12.84804 35199 ft 460 kts 136°
2026-04-18 06:35 47.34880 12.91142 35199 ft 460 kts 136°
2026-04-18 06:35 47.30130 12.97470 35189 ft 460 kts 136°
2026-04-18 06:36 47.25375 13.03788 35189 ft 461 kts 136°
2026-04-18 06:36 47.20648 13.10055 35187 ft 461 kts 136°
2026-04-18 06:37 47.15879 13.16362 35209 ft 461 kts 136°
2026-04-18 06:37 47.11099 13.22667 35187 ft 462 kts 136°
2026-04-18 06:38 47.06312 13.28966 35211 ft 463 kts 136°
2026-04-18 06:38 47.01513 13.35264 35191 ft 464 kts 136°
2026-04-18 06:39 46.96697 13.41568 35205 ft 465 kts 136°
2026-04-18 06:39 46.91868 13.47873 35189 ft 465 kts 136°
2026-04-18 06:40 46.87049 13.54150 35206 ft 463 kts 136°
2026-04-18 06:40 46.82229 13.60411 35190 ft 463 kts 135°
2026-04-18 06:41 46.77420 13.66644 35200 ft 461 kts 136°
2026-04-18 06:41 46.72620 13.72848 35196 ft 461 kts 135°
2026-04-18 06:42 46.67816 13.79045 35191 ft 462 kts 135°
2026-04-18 06:42 46.62997 13.85246 35199 ft 463 kts 136°
2026-04-18 06:43 46.58160 13.91455 35204 ft 465 kts 135°
2026-04-18 06:43 46.53291 13.97690 35207 ft 468 kts 135°
2026-04-18 06:44 46.48397 14.03943 35200 ft 469 kts 135°
2026-04-18 06:44 46.43689 14.10468 35205 ft 467 kts 132°
2026-04-18 06:45 46.39088 14.17084 35192 ft 465 kts 132°
2026-04-18 06:45 46.34461 14.23635 35214 ft 465 kts 132°
2026-04-18 06:46 46.29808 14.30154 35206 ft 466 kts 132°
2026-04-18 06:46 46.25154 14.36659 35215 ft 465 kts 132°
2026-04-18 06:47 46.20506 14.43155 35210 ft 465 kts 132°
2026-04-18 06:47 46.16649 14.48542 35240 ft 464 kts 131°
2026-04-18 06:48 46.11997 14.55027 35209 ft 465 kts 131°
2026-04-18 06:48 46.06586 14.62547 35205 ft 465 kts 131°
2026-04-18 06:49 46.01924 14.69007 35199 ft 465 kts 131°
2026-04-18 06:49 45.98021 14.74404 35188 ft 465 kts 131°
2026-04-18 06:50 45.93356 14.80841 35205 ft 465 kts 131°
2026-04-18 06:50 45.87927 14.88313 35201 ft 466 kts 131°
2026-04-18 06:51 45.84034 14.93656 35196 ft 466 kts 131°
2026-04-18 06:51 45.79320 15.00112 35202 ft 466 kts 131°
2026-04-18 06:52 45.74658 15.06482 35207 ft 467 kts 131°
2026-04-18 06:52 45.69948 15.12903 35209 ft 468 kts 131°
2026-04-18 06:53 45.65222 15.19328 35197 ft 469 kts 131°
2026-04-18 06:53 45.60488 15.25753 35204 ft 470 kts 131°
2026-04-18 06:54 45.55723 15.32159 35195 ft 471 kts 133°
2026-04-18 06:54 45.50841 15.38425 35181 ft 472 kts 134°
2026-04-18 06:55 45.45934 15.44642 35194 ft 472 kts 134°
2026-04-18 06:55 45.41030 15.50869 35191 ft 472 kts 133°
2026-04-18 06:56 45.36165 15.57056 35186 ft 472 kts 133°
2026-04-18 06:56 45.31272 15.63272 35204 ft 471 kts 133°
2026-04-18 06:57 45.26375 15.69479 35188 ft 472 kts 133°
2026-04-18 06:57 45.19032 15.78756 35183 ft 471 kts 133°
2026-04-18 06:58 45.14141 15.84916 35173 ft 471 kts 133°
2026-04-18 06:58 45.09244 15.91067 35175 ft 470 kts 133°
2026-04-18 06:59 45.04340 15.97215 35184 ft 471 kts 133°
2026-04-18 06:59 44.99426 16.03360 35171 ft 472 kts 134°
2026-04-18 07:00 44.94508 16.09495 35170 ft 472 kts 134°
2026-04-18 07:00 44.89582 16.15625 35173 ft 472 kts 134°
2026-04-18 07:01 44.84648 16.21750 35165 ft 473 kts 133°
2026-04-18 07:01 44.79703 16.27877 35145 ft 474 kts 134°
2026-04-18 07:02 44.74751 16.33995 35168 ft 474 kts 134°
2026-04-18 07:02 44.69786 16.40116 35158 ft 475 kts 134°
2026-04-18 07:03 44.64822 16.46221 35183 ft 475 kts 134°
2026-04-18 07:03 44.59840 16.52333 35160 ft 475 kts 134°
2026-04-18 07:04 44.54856 16.58433 35142 ft 475 kts 134°
2026-04-18 07:04 44.49878 16.64511 35150 ft 475 kts 134°
2026-04-18 07:05 44.44894 16.70584 35142 ft 475 kts 134°
2026-04-18 07:05 44.39906 16.76646 35140 ft 476 kts 134°
2026-04-18 07:06 44.34909 16.82705 35132 ft 475 kts 134°
2026-04-18 07:06 44.29944 16.88711 35138 ft 475 kts 134°
2026-04-18 07:07 44.24939 16.94752 35127 ft 476 kts 134°
2026-04-18 07:07 44.19929 17.00784 35139 ft 477 kts 135°
2026-04-18 07:08 44.14904 17.06822 35119 ft 477 kts 135°
2026-04-18 07:08 44.09880 17.12843 35117 ft 477 kts 135°
2026-04-18 07:09 44.04851 17.18855 35115 ft 476 kts 135°
2026-04-18 07:09 43.99822 17.24855 35133 ft 477 kts 135°
2026-04-18 07:10 43.94786 17.30848 35121 ft 477 kts 135°
2026-04-18 07:10 43.89746 17.36834 35110 ft 477 kts 135°
2026-04-18 07:11 43.84707 17.42804 35102 ft 476 kts 135°
2026-04-18 07:11 43.79666 17.48766 35128 ft 477 kts 136°
2026-04-18 07:12 43.74578 17.54686 35097 ft 480 kts 140°
2026-04-18 07:12 43.69082 17.59943 35093 ft 481 kts 143°
2026-04-18 07:13 43.63470 17.65008 35086 ft 482 kts 144°
2026-04-18 07:13 43.57924 17.70111 35125 ft 477 kts 143°
2026-04-18 07:14 43.52392 17.75184 35110 ft 477 kts 143°
2026-04-18 07:14 43.46881 17.80234 35097 ft 476 kts 143°
2026-04-18 07:15 43.41381 17.85316 35066 ft 478 kts 143°
2026-04-18 07:15 43.35840 17.90418 35060 ft 481 kts 143°
2026-04-18 07:16 43.30259 17.95536 35052 ft 483 kts 143°
2026-04-18 07:16 43.24655 18.00664 35055 ft 485 kts 143°
2026-04-18 07:17 43.19030 18.05800 35055 ft 486 kts 143°
2026-04-18 07:17 43.13392 18.10938 35036 ft 487 kts 144°
2026-04-18 07:18 43.07752 18.16065 35029 ft 486 kts 144°
2026-04-18 07:18 43.02123 18.21170 35024 ft 485 kts 144°
2026-04-18 07:19 42.96542 18.26221 35032 ft 484 kts 144°
2026-04-18 07:19 42.90939 18.31282 35011 ft 482 kts 144°
2026-04-18 07:20 42.85358 18.36311 35005 ft 480 kts 144°
2026-04-18 07:20 42.79792 18.41316 35010 ft 479 kts 144°
2026-04-18 07:21 42.74231 18.46305 35011 ft 479 kts 144°
2026-04-18 07:21 42.68678 18.51277 34998 ft 477 kts 145°
2026-04-18 07:22 42.63137 18.56227 34998 ft 477 kts 145°
2026-04-18 07:22 42.57585 18.61175 34977 ft 477 kts 145°
2026-04-18 07:23 42.52040 18.66107 34974 ft 476 kts 145°
2026-04-18 07:23 42.46498 18.71026 34968 ft 476 kts 146°
2026-04-18 07:24 42.40956 18.75933 34981 ft 476 kts 146°
2026-04-18 07:24 42.35402 18.80842 34991 ft 477 kts 146°
2026-04-18 07:25 42.29838 18.85749 34988 ft 477 kts 146°
2026-04-18 07:25 42.24271 18.90647 34993 ft 478 kts 146°
2026-04-18 07:26 42.18699 18.95540 34988 ft 478 kts 146°
2026-04-18 07:26 42.13163 19.00390 34989 ft 478 kts 146°
2026-04-18 07:27 42.07549 19.05299 34994 ft 478 kts 146°
2026-04-18 07:27 42.01976 19.10161 34996 ft 478 kts 146°
2026-04-18 07:28 41.96435 19.14986 35003 ft 478 kts 147°
2026-04-18 07:28 41.90854 19.19835 34985 ft 478 kts 147°
2026-04-18 07:29 41.85275 19.24673 34987 ft 477 kts 147°
2026-04-18 07:29 41.79700 19.29497 34981 ft 477 kts 147°
2026-04-18 07:30 41.74536 19.35010 34994 ft 474 kts 135°
2026-04-18 07:30 41.69840 19.41223 34973 ft 475 kts 134°
2026-04-18 07:31 41.65153 19.47431 34979 ft 475 kts 135°
2026-04-18 07:31 41.60423 19.53610 34968 ft 476 kts 135°
2026-04-18 07:32 41.55667 19.59770 34950 ft 477 kts 135°
2026-04-18 07:32 41.50897 19.65927 34940 ft 477 kts 135°
2026-04-18 07:33 41.46119 19.72083 34939 ft 478 kts 135°
2026-04-18 07:33 41.41366 19.78196 34939 ft 478 kts 135°
2026-04-18 07:34 41.36539 19.84392 34949 ft 479 kts 136°
2026-04-18 07:34 41.31737 19.90543 34942 ft 480 kts 136°
2026-04-18 07:35 41.26954 19.96655 34947 ft 480 kts 136°
2026-04-18 07:35 41.22138 20.02796 34949 ft 479 kts 136°
2026-04-18 07:36 41.17326 20.08920 34942 ft 479 kts 136°
2026-04-18 07:36 41.12520 20.15022 34956 ft 478 kts 136°
2026-04-18 07:37 41.07719 20.21106 34975 ft 477 kts 136°
2026-04-18 07:37 41.03739 20.26140 34967 ft 476 kts 136°
2026-04-18 07:38 40.98141 20.33202 34969 ft 475 kts 136°
2026-04-18 07:38 40.93359 20.39224 34987 ft 474 kts 136°
2026-04-18 07:39 40.89384 20.44219 34981 ft 474 kts 136°
2026-04-18 07:39 40.84602 20.50217 34991 ft 474 kts 137°
2026-04-18 07:40 40.79817 20.56206 34988 ft 475 kts 137°
2026-04-18 07:40 40.75020 20.62198 34998 ft 475 kts 137°
2026-04-18 07:41 40.70212 20.68192 34990 ft 476 kts 137°
2026-04-18 07:41 40.65389 20.74190 34991 ft 477 kts 137°
2026-04-18 07:42 40.60557 20.80189 34999 ft 478 kts 137°
2026-04-18 07:42 40.55709 20.86195 34992 ft 479 kts 137°
2026-04-18 07:43 40.50856 20.92197 34991 ft 479 kts 137°
2026-04-18 07:43 40.45983 20.98152 34988 ft 479 kts 139°
2026-04-18 07:44 40.40983 21.03909 34982 ft 477 kts 140°
2026-04-18 07:44 40.35976 21.09605 34976 ft 476 kts 140°
2026-04-18 07:45 40.30999 21.15300 34992 ft 474 kts 140°
2026-04-18 07:45 40.26043 21.20984 34985 ft 473 kts 140°
2026-04-18 07:46 40.21127 21.26617 34987 ft 472 kts 140°
2026-04-18 07:46 40.16187 21.32265 34976 ft 472 kts 140°
2026-04-18 07:47 40.11249 21.37898 34983 ft 471 kts 140°
2026-04-18 07:47 40.06318 21.43512 34993 ft 470 kts 140°
2026-04-18 07:48 40.01392 21.49110 34985 ft 469 kts 140°
2026-04-18 07:48 39.96465 21.54697 34994 ft 469 kts 140°
2026-04-18 07:49 39.91536 21.60270 34976 ft 469 kts 140°
2026-04-18 07:49 39.86605 21.65830 34985 ft 469 kts 141°
2026-04-18 07:50 39.81672 21.71386 34987 ft 469 kts 141°
2026-04-18 07:50 39.76741 21.76929 34985 ft 469 kts 141°
2026-04-18 07:51 39.71803 21.82470 34990 ft 468 kts 141°
2026-04-18 07:51 39.66870 21.87995 34967 ft 468 kts 141°
2026-04-18 07:52 39.61947 21.93498 34971 ft 466 kts 141°
2026-04-18 07:52 39.57035 21.98977 34975 ft 465 kts 141°
2026-04-18 07:53 39.52133 22.04435 34975 ft 464 kts 141°
2026-04-18 07:53 39.47236 22.09876 34973 ft 463 kts 141°
2026-04-18 07:54 39.42347 22.15298 34974 ft 463 kts 141°
2026-04-18 07:54 39.37453 22.20715 34964 ft 463 kts 141°
2026-04-18 07:55 39.32556 22.26125 34977 ft 463 kts 141°
2026-04-18 07:55 39.27655 22.31530 34979 ft 464 kts 141°
2026-04-18 07:56 39.22744 22.36935 34976 ft 464 kts 141°
2026-04-18 07:56 39.17854 22.42306 34977 ft 465 kts 141°
2026-04-18 07:57 39.12922 22.47714 34976 ft 466 kts 141°
2026-04-18 07:57 39.07986 22.53115 34962 ft 466 kts 141°
2026-04-18 07:58 39.00575 22.61207 34965 ft 466 kts 141°
2026-04-18 07:59 38.95637 22.66585 34969 ft 465 kts 141°
2026-04-18 07:59 38.90707 22.71944 34974 ft 464 kts 141°
2026-04-18 08:00 38.85783 22.77288 34968 ft 463 kts 141°
2026-04-18 08:00 38.80869 22.82610 34975 ft 462 kts 141°
2026-04-18 08:01 38.75971 22.87905 34970 ft 460 kts 141°
2026-04-18 08:01 38.71075 22.93187 34973 ft 460 kts 142°
2026-04-18 08:02 38.66182 22.98456 34960 ft 459 kts 142°
2026-04-18 08:02 38.61295 23.03710 34963 ft 459 kts 142°
2026-04-18 08:03 38.56411 23.08951 34968 ft 458 kts 142°
2026-04-18 08:03 38.51525 23.14184 34960 ft 458 kts 141°
2026-04-18 08:04 38.46637 23.19411 34957 ft 458 kts 141°
2026-04-18 08:04 38.41744 23.24632 34950 ft 459 kts 141°
2026-04-18 08:05 38.36853 23.29842 34955 ft 459 kts 141°
2026-04-18 08:05 38.31952 23.35054 34951 ft 459 kts 141°
2026-04-18 08:06 38.27048 23.40259 34939 ft 459 kts 141°
2026-04-18 08:06 38.22143 23.45459 34912 ft 459 kts 141°
2026-04-18 08:07 38.17265 23.50617 34923 ft 459 kts 141°
2026-04-18 08:07 38.12343 23.55807 34921 ft 460 kts 142°
2026-04-18 08:08 38.07410 23.60994 34908 ft 461 kts 142°
2026-04-18 08:08 38.02471 23.66184 34922 ft 462 kts 142°
2026-04-18 08:09 37.97519 23.71377 34921 ft 461 kts 142°
2026-04-18 08:09 37.92581 23.76551 34812 ft 458 kts 142°
2026-04-18 08:09 37.90136 23.79107 34443 ft 453 kts 142°
2026-04-18 08:10 37.87833 23.81787 34079 ft 449 kts 134°
2026-04-18 08:10 37.85792 23.84764 33646 ft 446 kts 131°
2026-04-18 08:10 37.83821 23.87785 33211 ft 443 kts 130°
2026-04-18 08:10 37.81876 23.90790 32791 ft 440 kts 130°
2026-04-18 08:11 37.79943 23.93756 32421 ft 435 kts 131°
2026-04-18 08:11 37.78013 23.96688 31985 ft 433 kts 132°
2026-04-18 08:11 37.76086 23.99588 31617 ft 429 kts 132°
2026-04-18 08:11 37.74166 24.02460 31215 ft 426 kts 132°
2026-04-18 08:12 37.72256 24.05308 30846 ft 423 kts 132°
2026-04-18 08:12 37.70359 24.08134 30467 ft 420 kts 133°
2026-04-18 08:12 37.68475 24.10938 30083 ft 417 kts 132°
2026-04-18 08:12 37.66602 24.13723 29645 ft 415 kts 132°
2026-04-18 08:13 37.64743 24.16486 29238 ft 411 kts 133°
2026-04-18 08:13 37.62899 24.19224 28819 ft 408 kts 133°
2026-04-18 08:13 37.61073 24.21936 28462 ft 403 kts 132°
2026-04-18 08:13 37.59262 24.24622 28060 ft 400 kts 132°
2026-04-18 08:14 37.57466 24.27284 27674 ft 397 kts 132°
2026-04-18 08:14 37.55676 24.29919 27301 ft 394 kts 134°
2026-04-18 08:14 37.53804 24.32421 26920 ft 390 kts 137°
2026-04-18 08:14 37.51885 24.34813 26541 ft 388 kts 138°
2026-04-18 08:15 37.49952 24.37171 26169 ft 386 kts 138°
2026-04-18 08:15 37.48029 24.39510 25813 ft 383 kts 138°
2026-04-18 08:15 37.46119 24.41842 25439 ft 382 kts 137°
2026-04-18 08:15 37.44249 24.44137 25090 ft 379 kts 137°
2026-04-18 08:16 37.42366 24.46454 24675 ft 379 kts 137°
2026-04-18 08:16 37.40485 24.48775 24325 ft 378 kts 137°
2026-04-18 08:16 37.38617 24.51083 23967 ft 376 kts 136°
2026-04-18 08:16 37.36755 24.53384 23605 ft 375 kts 136°
2026-04-18 08:17 37.34897 24.55677 23184 ft 375 kts 136°
2026-04-18 08:17 37.33044 24.57964 22799 ft 372 kts 136°
2026-04-18 08:17 37.31200 24.60238 22423 ft 370 kts 136°
2026-04-18 08:17 37.29369 24.62494 22071 ft 367 kts 136°
2026-04-18 08:18 37.27551 24.64732 21691 ft 365 kts 135°
2026-04-18 08:18 37.25740 24.66960 21340 ft 363 kts 135°
2026-04-18 08:18 37.23943 24.69169 20991 ft 361 kts 135°
2026-04-18 08:18 37.22151 24.71372 20631 ft 360 kts 135°
2026-04-18 08:19 37.20367 24.73562 20296 ft 358 kts 135°
2026-04-18 08:19 37.18593 24.75738 19950 ft 356 kts 135°